Location: Bun Machan
(52.1403°N, 7.3744°W)
Time: 18:42:49
(UTC+00:00)

Cosmos 407 Rocket - Pass Details

Date: 14 July 2020
Orbit: 744 x 786 km, 74.0° (Epoch: 12 August)

Event Time Altitude Azimuth Distance (km) Brightness Sun altitude
Exits shadow 02:35:23 16° 206° (SSW) 1,951 4.9 -11.7°
Maximum altitude 02:39:43 86° 296° (WNW) 796 3.6 -11.4°
Drops below altitude 10° 02:45:06 10° 25° (NNE) 2,357 7.6 -11.0°
Sets 02:47:30 0° 26° (NNE) 3,287 9.0 -10.8°
